TimeCDT,TemperatureF,Dew PointF,Humidity,Sea Level PressureIn,VisibilityMPH,Wind Direction,Wind SpeedMPH,Gust SpeedMPH,PrecipitationIn,Events,Conditions,WindDirDegrees,DateUTC
12:54 AM,50.0,43.0,77,29.98,10.0,WSW,4.6,-,N/A,,Clear,240,2012-10-15 05:54:00
1:54 AM,46.9,42.1,83,29.98,10.0,SW,5.8,-,N/A,,Clear,220,2012-10-15 06:54:00
2:54 AM,50.0,42.1,74,29.99,10.0,West,6.9,-,N/A,,Clear,260,2012-10-15 07:54:00
3:54 AM,48.9,42.1,77,29.98,10.0,West,6.9,-,N/A,,Clear,280,2012-10-15 08:54:00
4:54 AM,48.0,42.1,80,29.98,10.0,West,5.8,-,N/A,,Clear,280,2012-10-15 09:54:00
5:54 AM,46.9,41.0,80,29.99,10.0,West,3.5,-,N/A,,Clear,280,2012-10-15 10:54:00
6:54 AM,46.0,41.0,83,30.00,10.0,WNW,4.6,-,N/A,,Clear,290,2012-10-15 11:54:00
7:54 AM,46.9,42.1,83,30.01,10.0,NW,3.5,-,N/A,,Clear,320,2012-10-15 12:54:00
8:54 AM,53.1,44.1,71,30.02,10.0,Calm,Calm,-,N/A,,Clear,0,2012-10-15 13:54:00
9:54 AM,57.9,46.0,65,30.04,10.0,Calm,Calm,-,N/A,,Clear,0,2012-10-15 14:54:00
10:54 AM,62.1,43.0,50,30.03,10.0,Calm,Calm,-,N/A,,Clear,0,2012-10-15 15:54:00
11:54 AM,64.9,45.0,48,30.02,10.0,SE,3.5,-,N/A,,Clear,130,2012-10-15 16:54:00
12:54 PM,68.0,43.0,40,30.01,10.0,SW,4.6,-,N/A,,Clear,230,2012-10-15 17:54:00
1:54 PM,69.1,42.1,38,29.99,10.0,Calm,Calm,-,N/A,,Clear,0,2012-10-15 18:54:00
2:54 PM,70.0,44.1,39,29.96,10.0,South,4.6,-,N/A,,Clear,190,2012-10-15 19:54:00
3:54 PM,72.0,43.0,35,29.94,10.0,Variable,3.5,-,N/A,,Clear,0,2012-10-15 20:54:00
4:54 PM,71.1,44.1,38,29.93,10.0,SSE,3.5,-,N/A,,Clear,160,2012-10-15 21:54:00
5:54 PM,68.0,46.9,47,29.92,10.0,East,4.6,-,N/A,,Clear,100,2012-10-15 22:54:00
6:54 PM,63.0,45.0,52,29.92,10.0,East,5.8,-,N/A,,Clear,100,2012-10-15 23:54:00
7:54 PM,61.0,45.0,56,29.93,10.0,East,5.8,-,N/A,,Clear,100,2012-10-16 00:54:00
8:54 PM,60.1,44.1,55,29.92,10.0,ESE,6.9,-,N/A,,Clear,120,2012-10-16 01:54:00
9:54 PM,57.9,44.1,60,29.91,10.0,ESE,6.9,-,N/A,,Clear,120,2012-10-16 02:54:00
10:54 PM,57.0,44.1,62,29.91,10.0,SE,6.9,-,N/A,,Clear,130,2012-10-16 03:54:00
11:54 PM,55.9,44.1,64,29.91,10.0,SE,8.1,-,N/A,,Clear,130,2012-10-16 04:54:00